Flag for Albania Weather past 2 weeks in Durrës, Albania

Now
73 °F

Scattered clouds.


Feels Like: 76 °F
Forecast: 69 / 81 °F
Wind: No wind

Location: Tirana Airport

Current Time: Aug 1, 2014 at 10:19:53 AM

Latest Report: Aug 1, 2014 at 9:50 AM


Visibility: N/A

Pressure: 29.77 "Hg

Humidity: 65%

Dew point: 61 °F

Location of DurrësLocation

Historic Weather in Durrës — Graph

°F

Durrës temperature yesterday

Maximum temperature yesterday: 79 °F (at 9:20 AM)
Minimum temperature yesterday: 66 °F (at 11:20 PM)
Average temperature yesterday: 73 °F

Past Weeks' High & Low Weather Summary

 TemperatureHumidityPressure
High91 °F (Jul 19, 1:50 PM)94% (Jul 18, 4:50 AM)29.95 "Hg (Jul 18, 4:50 AM)
Low63 °F (Jul 18, 5:50 AM)34% (Jul 19, 2:50 PM)29.71 "Hg (Jul 22, 3:50 PM)
Average76 °F70%29.86 "Hg
* Reported Jul 17 9:20 AM — Aug 1 9:20 AM, Durrës, Weather by CustomWeather, © 2014

Note: Actual official high and low records may vary slightly from our data, if they occured in-between our weather recording intervals... More about our weather records

Advertising

Durrës weather history for previous 24 hours

 ConditionsComfort  
Time TempWeatherWind HumidityBarometerVisibility
9:20 AM
Aug 1
73 °FScattered clouds.No wind65%29.77 "HgN/A
8:50 AM73 °FScattered clouds.2 mph65%29.74 "HgN/A
8:20 AM73 °FPassing clouds.3 mph65%29.74 "HgN/A
7:50 AM72 °FPassing clouds.3 mph73%29.74 "HgN/A
7:20 AM68 °FPassing clouds.3 mph83%29.74 "HgN/A
6:50 AM66 °FSunny.5 mph83%29.74 "Hg10 mi
6:20 AM64 °FPassing clouds.3 mph88%29.74 "HgN/A
5:50 AM64 °FPassing clouds.2 mph88%29.77 "HgN/A
5:20 AM64 °FPassing clouds.5 mph88%29.77 "HgN/A
4:50 AM64 °FPassing clouds.3 mph88%29.77 "HgN/A
4:20 AM64 °FPassing clouds.3 mph88%29.77 "HgN/A
3:50 AM64 °FPassing clouds.2 mph88%29.77 "HgN/A
3:20 AM64 °FPassing clouds.2 mph88%29.77 "HgN/A
2:50 AM64 °FPassing clouds.2 mph94%29.77 "HgN/A
2:20 AM64 °FPassing clouds.3 mph94%29.77 "HgN/A
1:50 AM66 °FPassing clouds.2 mph88%29.77 "HgN/A
1:20 AM66 °FPassing clouds.2 mph88%29.80 "HgN/A
12:50 AM66 °FClear.5 mph88%29.77 "Hg10 mi
12:20 AM66 °FClear.No wind88%29.77 "Hg10 mi
11:50 PM
Jul 31
66 °FPassing clouds.5 mph88%29.77 "HgN/A
11:20 PM66 °FPassing clouds.3 mph88%29.80 "HgN/A
10:50 PM68 °FPassing clouds.3 mph83%29.80 "HgN/A
10:20 PM68 °FPassing clouds.No wind83%29.77 "HgN/A
9:50 PM68 °FPassing clouds.2 mph83%29.77 "HgN/A
9:20 PM70 °FPassing clouds.No wind73%29.77 "HgN/A
8:50 PM70 °FScattered clouds.2 mph73%29.77 "HgN/A
8:20 PM72 °FScattered clouds.3 mph65%29.77 "HgN/A
7:50 PM73 °FPassing clouds.5 mph65%29.77 "HgN/A
7:20 PM73 °FScattered clouds.5 mph61%29.77 "HgN/A
6:50 PM77 °FScattered clouds.5 mph51%29.77 "HgN/A
6:20 PM79 °FPassing clouds.7 mph48%29.74 "HgN/A
5:50 PM79 °FScattered clouds.6 mph51%29.74 "HgN/A
5:20 PM77 °FScattered clouds.6 mph51%29.77 "HgN/A
4:50 PM77 °FScattered clouds.5 mph51%29.77 "HgN/A
4:20 PM79 °FScattered clouds.7 mph54%29.77 "HgN/A
3:50 PM77 °FPassing clouds.9 mph54%29.77 "HgN/A
3:20 PM79 °FScattered clouds.7 mph54%29.77 "HgN/A
2:50 PM79 °FScattered clouds.8 mph58%29.77 "HgN/A
2:20 PM77 °FBroken clouds.8 mph57%29.77 "HgN/A
1:50 PM77 °FBroken clouds.5 mph57%29.77 "HgN/A
1:20 PM79 °FBroken clouds.7 mph61%29.77 "HgN/A
12:50 PM79 °FBroken clouds.6 mph58%29.77 "HgN/A
12:20 PM77 °FBroken clouds.3 mph69%29.77 "HgN/A
11:50 AM75 °FScattered clouds.2 mph69%29.77 "HgN/A
11:20 AM68 °FHeavy rain. Broken clouds.10 mph88%29.77 "Hg3 mi
10:50 AM79 °FBroken clouds.1 mph61%29.77 "HgN/A
10:20 AM79 °FBroken clouds.5 mph70%29.77 "HgN/A
Weather by CustomWeather, © 2014

See weather overviewHow to use our weather pages